Retour au catalogue

STARLINK-37855

ActifCommunicationsSSO
NORAD 69493·PAYLOAD·🇺🇸 United States

Lancé Jun 11, 2026 depuis Vandenberg Space Force Base

Loading…

Prochains Passages (prochaines 24 heures)

TLE

FraisSource: CelesTrak SupGP

Époque: Sep 15, 2026, 04:32 UTC

1 69493C 26131R   26258.18937500 -.00057785  00000+0 -17942-2 0  2586
2 69493  97.2831 279.1645 0001243  90.1223 344.6691 15.33462009    11

Suivez STARLINK-37855 en temps réel avec AllMySat

Download on the App Store